Wind_Speed
31 30 27 26 24 25 24 21 25 27 29 26 26 33 25 28 26 25 19 23 27 29 28 29 31 31 32 30 28 27 29 26 28 29 33 33 33 32 32 34 33 33 35 38 40 38 40 38 38
31 31 30 27 28 28 24 23 26 32 33 30 29 34 31 32 23 25 25 25 27 29 27 28 29 29 31 30 29 29 29 28 30 31 33 33 34 33 34 34 35 35 37 40 41 41 40 36 41
30 31 30 27 28 29 24 24 27 29 33 30 28 32 31 31 36 34 34 35 32 31 32 30 29 29 30 30 31 31 31 31 33 33 33 34 33 34 33 34 35 39 38 40 42 40 39 40 41
27 27 26 26 28 27 26 20 26 25 27 35 37 35 33 35 38 38 38 40 38 36 36 35 32 32 30 29 30 31 33 32 34 34 34 34 36 36 33 36 39 42 43 41 43 43 44 42 43
23 25 25 25 23 25 23 20 24 24 30 32 34 35 37 41 40 39 40 35 33 33 34 34 32 32 31 29 31 33 34 34 35 34 35 35 37 38 37 41 41 40 41 41 41 41 43 45 47
21 22 23 20 24 23 24 23 25 27 28 31 34 38 40 42 45 41 38 34 30 31 30 30 28 31 29 30 33 36 35 34 35 36 36 37 37 39 39 40 41 39 40 38 40 42 45 46 39
22 22 20 19 24 24 25 26 23 25 28 30 32 37 41 44 45 43 34 35 36 33 31 32 33 31 36 34 35 37 37 36 37 36 38 37 38 41 40 39 37 37 37 40 44 47 49 49 47
23 22 21 20 24 23 24 22 24 19 18 19 19 24 25 29 34 32 35 38 38 33 33 32 32 34 33 34 36 37 38 38 37 38 38 40 40 38 35 36 37 39 43 47 48 50 56 51 49
22 23 22 22 24 24 25 21 20 18 18 20 20 24 27 29 32 28 28 31 35 35 35 33 32 32 34 36 38 37 38 37 38 39 37 36 32 32 38 39 40 45 45 47 49 54 52 48 53
24 23 25 26 26 26 27 21 21 19 21 20 24 27 30 31 31 31 30 31 35 33 31 27 27 29 31 33 34 35 35 36 37 37 35 31 34 37 39 40 43 46 48 51 56 55 50 52 52
26 25 28 28 30 29 27 23 18 20 21 25 24 27 31 33 30 31 31 30 32 34 31 33 33 34 33 34 34 33 33 34 35 35 36 34 39 41 41 42 46 50 56 49 46 47 45 46 47
27 27 29 30 30 30 28 26 23 23 24 27 30 27 30 33 31 32 32 31 32 35 36 38 43 40 36 36 35 33 33 31 35 35 34 37 37 41 41 43 51 55 48 47 47 47 47 47 47
29 29 29 29 30 32 31 29 29 26 26 28 31 29 30 34 34 33 35 32 30 31 33 40 42 36 35 34 33 32 32 33 34 35 38 38 40 41 43 45 45 47 47 47 47 47 46 45 44
34 32 33 32 32 33 33 31 31 28 30 31 33 36 29 31 36 35 34 32 31 29 30 31 31 32 31 31 32 33 33 33 34 35 35 36 37 39 40 42 44 45 45 45 46 46 44 44 47
35 36 35 35 34 31 32 32 33 32 32 32 33 39 36 29 34 33 31 31 29 29 29 28 29 29 29 29 29 31 32 32 32 30 30 33 36 39 41 42 42 43 45 45 44 44 44 48 52
35 36 39 39 37 35 36 34 35 34 33 32 33 35 40 35 30 30 31 28 25 27 29 30 30 28 28 30 32 32 33 34 34 33 34 36 37 37 38 40 40 42 41 46 46 45 48 51 55
34 40 43 40 40 37 39 39 40 38 35 33 33 33 37 34 31 29 29 25 23 26 27 28 28 28 29 31 32 33 34 34 35 35 36 37 36 36 35 34 36 38 40 47 49 50 54 57 59
36 35 38 40 40 40 42 43 41 38 37 33 31 32 33 34 33 29 25 23 23 23 25 27 29 30 31 32 32 34 35 35 37 39 37 36 36 36 36 37 36 35 41 49 55 59 61 62 65
32 35 36 36 34 37 39 44 40 35 33 33 30 29 30 33 36 29 24 24 26 24 24 25 27 28 30 31 32 34 34 34 37 40 39 38 37 37 35 37 44 46 46 55 61 65 66 65 66
32 33 35 37 36 40 42 46 42 35 34 35 33 30 28 30 32 32 26 23 27 26 28 27 27 28 30 31 32 35 36 37 37 38 38 39 38 37 34 34 35 48 50 56 61 68 70 68 68
35 34 36 36 36 36 36 39 39 38 36 35 31 29 29 31 29 31 32 32 31 29 31 31 30 30 29 28 31 34 34 35 36 38 41 42 39 39 38 40 44 53 55 68 66 74 71 71 71
42 41 42 41 43 40 35 47 42 39 37 35 35 36 35 35 35 36 36 36 37 39 38 36 36 36 36 35 35 38 36 37 38 38 41 43 46 45 42 40 52 55 65 65 71 69 70 73 79
44 44 45 47 50 47 47 51 45 44 43 40 42 43 42 41 41 41 42 43 43 43 43 44 43 41 42 42 43 43 42 36 39 38 44 49 48 44 42 48 54 59 66 67 69 71 76 78 82
45 45 46 48 50 49 52 54 52 50 51 48 49 50 49 50 49 49 50 51 51 52 52 50 47 47 48 46 48 48 47 43 43 43 44 47 51 51 48 51 49 61 65 67 74 77 78 83 84
43 44 46 48 49 49 50 53 54 51 49 49 50 53 53 54 55 55 56 57 58 59 59 58 57 53 51 51 51 51 46 46 47 46 48 50 54 55 56 61 65 67 71 74 78 81 83 84 85
38 38 39 40 42 41 42 44 46 47 48 46 47 48 50 52 54 58 58 57 57 60 60 61 60 59 58 56 54 54 54 56 59 57 55 54 56 58 57 60 64 71 73 77 83 84 85 84 80
23 20 18 20 23 25 27 31 33 37 36 36 38 41 42 43 48 48 50 48 50 54 51 57 59 60 58 58 58 58 59 58 58 60 57 60 60 61 65 67 72 75 79 86 83 84 82 76 73
16 14 17 19 21 24 25 26 28 29 28 28 28 29 30 28 26 30 34 41 45 47 51 54 54 53 52 52 53 54 56 59 59 60 62 64 64 67 68 73 77 83 83 81 81 73 73 70 67
20 22 25 24 27 27 31 34 35 34 34 33 35 30 27 26 25 29 32 32 35 41 45 48 52 48 46 46 47 47 49 49 48 54 60 62 67 72 74 75 76 77 78 77 70 70 65 66 61
24 27 33 33 32 30 31 36 39 37 38 38 35 35 35 30 34 33 32 36 38 38 38 37 36 30 29 36 41 39 41 41 42 45 48 51 61 64 65 69 70 73 73 70 68 64 64 63 61
Wind_Direction
279 278 279 282 276 276 277 262 246 246 247 262 242 223 258 271 276 284 295 301 286 283 279 275 278 280 283 287 288 288 288 292 289 286 285 289 296 297 297 295 293 290 295 298 301 301 299 294 290
275 276 279 277 273 276 269 260 247 241 245 256 259 252 254 251 252 272 290 298 299 282 279 280 281 284 287 287 285 287 289 291 292 291 292 296 296 293 291 288 288 290 296 299 302 303 300 293 296
274 276 277 270 271 269 262 253 260 246 250 254 262 259 272 271 260 267 281 292 293 288 276 278 282 285 288 287 285 285 287 284 287 292 294 294 293 292 291 290 293 299 300 297 300 300 298 296 295
276 276 275 271 268 270 270 265 261 265 257 256 261 267 272 262 261 272 277 288 294 291 276 272 279 284 283 284 285 286 285 285 284 290 293 293 292 289 290 290 294 298 298 296 299 297 301 302 302
281 277 276 275 274 271 272 270 268 261 269 268 265 271 276 280 277 279 288 291 288 276 274 271 274 278 276 282 286 286 286 286 285 290 291 289 288 287 288 290 292 294 299 301 301 303 304 305 303
280 278 276 280 274 274 271 267 264 267 270 271 274 270 273 276 280 281 284 283 276 273 270 271 279 284 280 285 285 289 289 288 286 287 286 286 286 285 285 284 295 296 301 299 302 303 304 306 304
273 275 278 274 270 271 268 271 269 272 266 265 269 269 270 273 276 277 278 276 280 273 271 278 277 272 287 292 289 290 294 289 287 286 287 286 278 281 285 288 294 301 296 297 296 304 305 300 301
274 273 271 266 266 268 273 275 280 271 265 266 268 277 286 286 286 286 274 266 269 277 277 276 268 276 284 290 292 293 295 293 288 287 285 283 279 285 291 293 287 298 299 295 292 297 303 297 297
273 274 269 265 266 270 276 275 276 277 277 282 287 284 290 292 297 304 296 278 271 269 278 275 274 282 287 286 286 290 293 292 289 288 288 285 285 289 293 294 298 296 296 295 291 292 300 296 296
267 265 268 266 265 269 273 267 269 268 276 281 290 290 289 289 295 304 299 291 272 264 277 265 275 285 292 292 287 289 290 290 290 290 287 289 291 290 292 290 293 294 299 293 291 295 297 295 297
261 263 265 263 266 270 273 271 264 279 278 284 286 292 295 294 297 300 300 293 277 275 264 252 280 293 292 295 288 284 285 285 285 288 283 284 283 289 291 295 296 291 298 299 298 297 297 297 300
260 265 266 269 276 280 279 282 278 273 287 290 290 291 294 293 295 299 298 296 283 278 257 266 277 291 292 291 286 283 283 283 287 289 287 287 287 292 296 290 292 297 298 300 299 303 304 304 304
263 262 266 270 272 276 280 282 277 273 277 284 293 296 294 297 298 299 298 301 293 279 275 278 284 288 285 284 282 280 280 282 283 285 289 291 287 288 292 296 299 298 302 304 307 308 309 306 303
261 264 267 269 271 275 277 280 279 269 277 290 298 297 296 299 298 295 300 302 297 289 281 280 282 282 279 279 280 281 281 285 287 286 287 293 298 299 297 298 300 304 305 308 309 308 304 302 301
261 264 269 270 272 276 277 280 282 282 282 289 292 296 300 298 295 298 298 296 296 292 287 283 278 278 282 284 284 281 280 280 282 287 290 292 294 299 301 304 308 309 308 305 302 299 301 303 304
270 270 270 270 272 272 275 276 278 280 280 283 289 296 297 297 291 290 292 291 292 287 288 285 282 282 281 280 284 282 281 283 288 291 294 295 298 302 305 309 311 309 304 300 297 299 303 305 305
275 275 272 274 272 273 277 279 280 282 282 282 286 289 290 290 288 289 289 288 286 283 284 284 285 285 283 283 286 288 292 295 299 300 300 300 303 304 306 306 308 304 304 300 299 302 303 306 308
274 278 275 270 274 278 277 275 276 278 281 281 281 286 288 285 282 280 285 282 280 282 286 287 285 285 288 292 295 298 299 301 303 303 303 304 304 305 308 314 310 303 301 298 299 302 305 308 309
279 277 276 276 275 274 273 275 274 278 282 286 285 285 284 279 279 278 283 284 284 286 287 286 288 290 291 292 296 298 301 304 302 301 305 305 303 308 313 321 315 305 298 294 296 300 304 305 306
278 282 281 280 277 270 273 276 281 280 281 281 285 281 270 272 279 286 280 280 287 291 293 289 289 288 290 294 297 297 302 300 299 303 303 302 305 305 313 305 294 287 287 289 291 300 304 304 304
277 274 279 282 280 279 277 274 273 276 278 279 277 273 268 261 272 282 285 278 278 283 286 289 291 290 286 286 288 290 294 290 295 299 301 303 300 302 297 293 289 286 286 289 296 297 301 304 303
274 274 274 275 276 277 274 274 277 275 273 274 273 269 266 265 263 274 283 288 288 288 288 285 283 286 284 283 282 283 282 286 287 295 299 297 295 296 290 287 288 285 286 289 292 298 302 303 304
275 276 277 277 277 277 275 272 273 274 273 271 273 274 275 272 272 276 278 281 283 285 283 284 288 285 284 282 284 287 289 288 287 289 289 290 293 292 287 287 285 283 290 292 297 300 302 303 304
281 282 281 280 280 279 277 279 277 276 275 273 274 272 274 275 273 273 275 276 276 277 280 281 279 278 278 278 283 286 288 289 287 282 283 289 291 288 285 281 281 285 290 294 297 299 302 303 305
281 280 279 278 278 279 278 279 279 278 276 275 274 274 273 272 273 272 275 279 279 277 278 280 279 279 279 280 282 284 284 283 281 283 282 283 287 288 279 281 287 289 289 294 297 301 302 303 305
281 282 283 286 286 285 283 282 282 282 278 276 272 272 271 274 272 271 271 272 272 276 278 278 279 279 278 279 279 279 281 281 281 282 283 280 281 286 285 289 290 291 290 294 297 300 302 304 305
279 282 295 307 305 304 309 302 296 291 291 290 285 276 271 270 273 276 276 275 273 275 275 277 278 279 283 284 283 280 280 278 281 282 281 283 281 283 284 287 288 290 290 293 297 300 303 304 306
293 285 289 304 312 315 331 338 333 330 330 330 331 329 312 303 299 295 288 281 275 272 274 276 274 277 280 285 286 289 291 287 286 286 286 286 283 284 284 288 288 290 292 295 300 301 303 304 307
284 285 293 301 306 305 315 326 334 330 333 335 332 331 321 316 312 308 303 296 285 279 280 285 285 291 297 294 294 296 305 303 298 296 294 294 288 284 286 286 288 290 293 296 298 300 303 303 303
297 295 301 299 299 301 307 308 323 324 326 328 333 333 332 318 314 309 304 303 301 300 299 292 311 309 325 331 322 321 325 320 317 306 300 294 293 289 288 289 290 292 295 295 298 299 300 300 302
Height
10960 10960 10961 10962 10961 10960 10961 10960 10959 10956 10954 10952 10954 10954 10954 10953 10952 10953 10951 10950 10950 10947 10945 10943 10942 10940 10938 10936 10934 10933 10931 10930 10929 10927 10926 10925 10923 10921 10919 10917 10915 10912 10909 10907 10903 10901 10898 10895 10893
10954 10955 10957 10957 10955 10956 10957 10956 10955 10951 10950 10950 10949 10949 10950 10949 10949 10948 10948 10945 10944 10943 10941 10939 10937 10936 10934 10932 10929 10928 10927 10925 10923 10921 10919 10918 10917 10915 10913 10911 10909 10907 10904 10900 10897 10895 10892 10889 10886
10949 10950 10952 10952 10949 10948 10951 10950 10948 10949 10949 10948 10947 10944 10944 10945 10944 10944 10944 10941 10939 10938 10937 10935 10933 10931 10930 10928 10925 10924 10922 10920 10918 10916 10914 10913 10911 10909 10907 10905 10903 10900 10897 10894 10891 10888 10886 10884 10881
10943 10945 10946 10946 10944 10944 10945 10948 10945 10946 10944 10944 10942 10939 10938 10937 10937 10938 10940 10937 10934 10933 10932 10930 10928 10927 10925 10923 10921 10919 10916 10915 10913 10911 10909 10907 10905 10902 10900 10899 10896 10893 10891 10888 10885 10882 10880 10878 10875
10939 10940 10941 10942 10940 10939 10942 10944 10941 10940 10940 10937 10937 10935 10932 10927 10929 10930 10932 10932 10929 10926 10924 10924 10922 10921 10919 10917 10915 10913 10911 10909 10907 10905 10903 10901 10899 10896 10895 10891 10890 10887 10884 10882 10879 10877 10874 10870 10866
10934 10935 10937 10939 10933 10937 10939 10939 10936 10934 10934 10933 10933 10931 10926 10925 10923 10926 10925 10924 10922 10921 10920 10918 10916 10915 10914 10912 10909 10908 10905 10903 10901 10899 10897 10895 10893 10890 10887 10885 10883 10881 10878 10876 10873 10871 10867 10863 10859
10931 10932 10933 10934 10931 10932 10934 10932 10932 10932 10931 10930 10929 10925 10922 10921 10918 10920 10921 10917 10916 10915 10914 10913 10911 10909 10907 10905 10904 10902 10900 10897 10895 10893 10891 10889 10886 10883 10881 10879 10878 10876 10873 10870 10867 10864 10860 10856 10852
10928 10928 10929 10928 10927 10928 10929 10930 10928 10928 10927 10927 10924 10919 10919 10916 10912 10913 10914 10912 10911 10909 10907 10906 10905 10903 10901 10899 10898 10896 10894 10891 10889 10887 10885 10882 10879 10877 10875 10874 10872 10870 10867 10863 10860 10856 10852 10848 10844
10924 10925 10925 10924 10924 10924 10924 10925 10924 10922 10922 10920 10919 10915 10912 10909 10906 10908 10906 10905 10903 10902 10901 10899 10899 10897 10896 10894 10892 10890 10887 10884 10882 10880 10879 10876 10873 10871 10869 10868 10866 10863 10859 10856 10852 10847 10844 10840 10836
10919 10920 10920 10920 10920 10921 10920 10921 10920 10920 10918 10917 10915 10910 10907 10904 10903 10901 10900 10898 10895 10895 10895 10894 10893 10892 10890 10888 10886 10883 10881 10879 10876 10874 10873 10870 10868 10866 10863 10861 10859 10855 10852 10848 10844 10840 10835 10831 10827
10914 10914 10915 10914 10913 10914 10916 10916 10917 10915 10914 10912 10912 10907 10903 10898 10899 10897 10894 10891 10889 10888 10889 10887 10886 10885 10883 10881 10879 10877 10875 10872 10870 10868 10867 10864 10861 10860 10857 10854 10852 10846 10843 10837 10834 10832 10828 10823 10819
10910 10909 10909 10910 10910 10910 10911 10911 10912 10911 10910 10907 10905 10905 10900 10895 10893 10891 10888 10887 10883 10881 10881 10880 10879 10878 10877 10874 10872 10870 10868 10866 10864 10862 10860 10858 10856 10853 10850 10848 10844 10838 10834 10831 10828 10823 10819 10813 10809
10905 10905 10905 10907 10906 10905 10905 10906 10905 10907 10904 10901 10897 10897 10894 10890 10886 10885 10881 10880 10876 10875 10875 10874 10872 10872 10870 10867 10866 10863 10861 10859 10858 10855 10853 10850 10849 10846 10843 10840 10835 10830 10826 10822 10818 10813 10808 10804 10801
10899 10901 10900 10901 10902 10901 10901 10901 10900 10902 10899 10894 10891 10886 10890 10886 10879 10878 10874 10871 10870 10869 10869 10868 10865 10864 10864 10861 10859 10857 10855 10853 10851 10849 10848 10844 10840 10837 10834 10832 10829 10824 10818 10813 10810 10806 10802 10798 10794
10895 10895 10895 10895 10896 10897 10896 10895 10893 10893 10893 10890 10887 10879 10879 10884 10876 10869 10869 10865 10865 10864 10863 10863 10862 10861 10857 10855 10853 10851 10850 10849 10848 10846 10842 10839 10835 10831 10827 10824 10820 10815 10810 10807 10804 10800 10796 10791 10786
10888 10888 10888 10889 10889 10891 10889 10890 10888 10887 10887 10887 10883 10879 10870 10872 10874 10869 10865 10862 10861 10860 10859 10857 10856 10855 10854 10852 10850 10848 10845 10843 10842 10841 10837 10834 10831 10828 10823 10818 10814 10810 10806 10801 10798 10794 10789 10785 10779
10883 10880 10880 10881 10880 10883 10882 10882 10880 10881 10881 10883 10880 10877 10868 10865 10866 10866 10861 10859 10858 10856 10854 10852 10851 10850 10848 10846 10844 10842 10839 10836 10834 10834 10831 10828 10824 10821 10819 10816 10811 10806 10800 10794 10788 10786 10780 10775 10768
10879 10875 10872 10874 10875 10876 10874 10871 10872 10874 10874 10876 10876 10872 10867 10859 10859 10861 10859 10856 10853 10852 10849 10848 10846 10843 10841 10839 10838 10835 10832 10830 10828 10826 10824 10822 10817 10814 10812 10811 10806 10801 10793 10786 10779 10775 10769 10762 10754
10872 10869 10866 10868 10872 10868 10866 10860 10865 10869 10869 10868 10869 10868 10864 10858 10853 10855 10855 10853 10849 10847 10847 10845 10843 10840 10837 10835 10832 10830 10828 10826 10823 10819 10818 10815 10811 10810 10808 10804 10798 10792 10784 10778 10771 10766 10758 10751 10744
10867 10864 10861 10859 10862 10859 10858 10852 10855 10860 10860 10861 10862 10862 10859 10854 10849 10847 10848 10849 10847 10845 10844 10842 10839 10836 10834 10832 10829 10825 10824 10822 10819 10816 10813 10809 10807 10805 10801 10797 10790 10780 10773 10767 10760 10753 10747 10739 10732
10859 10858 10856 10853 10852 10853 10852 10845 10847 10851 10855 10856 10856 10854 10853 10851 10848 10842 10840 10841 10841 10839 10838 10835 10834 10831 10829 10827 10825 10823 10821 10817 10813 10811 10806 10802 10799 10797 10796 10790 10782 10774 10763 10756 10748 10742 10736 10728 10719
10849 10849 10848 10846 10840 10844 10848 10834 10840 10845 10846 10849 10849 10846 10846 10845 10842 10837 10834 10831 10830 10829 10828 10827 10826 10825 10823 10818 10820 10818 10817 10812 10808 10806 10801 10796 10794 10793 10788 10782 10772 10761 10754 10746 10738 10731 10724 10714 10704
10839 10839 10838 10834 10831 10835 10833 10827 10835 10836 10838 10841 10838 10838 10838 10835 10834 10831 10827 10823 10822 10818 10815 10815 10816 10815 10810 10807 10806 10807 10804 10803 10799 10797 10794 10788 10786 10781 10778 10771 10760 10751 10743 10733 10725 10719 10710 10700 10689
10829 10829 10826 10823 10822 10824 10818 10817 10822 10826 10826 10830 10827 10825 10824 10821 10821 10818 10813 10810 10806 10804 10803 10803 10802 10801 10800 10801 10798 10794 10792 10793 10790 10785 10784 10780 10773 10772 10767 10756 10745 10736 10728 10720 10712 10704 10696 10686 10676
10820 10817 10814 10811 10812 10811 10810 10806 10805 10812 10815 10816 10813 10809 10810 10808 10807 10806 10802 10798 10793 10791 10790 10790 10789 10790 10787 10785 10783 10781 10782 10782 10776 10776 10774 10769 10765 10759 10751 10742 10732 10724 10715 10706 10696 10687 10681 10671 10660
10810 10808 10804 10802 10800 10801 10800 10797 10794 10795 10797 10801 10799 10798 10796 10796 10791 10789 10788 10785 10778 10779 10780 10775 10775 10774 10774 10777 10777 10772 10770 10769 10765 10761 10761 10756 10752 10745 10731 10724 10717 10708 10699 10690 10681 10674 10665 10655 10645
10805 10802 10799 10795 10792 10794 10792 10789 10786 10787 10787 10787 10784 10786 10782 10782 10779 10775 10773 10772 10768 10767 10766 10763 10763 10760 10763 10761 10759 10758 10757 10755 10754 10751 10746 10740 10736 10728 10719 10710 10702 10693 10684 10677 10669 10660 10649 10638 10629
10799 10798 10794 10792 10789 10787 10788 10787 10781 10779 10780 10778 10775 10773 10769 10767 10765 10762 10760 10758 10756 10754 10753 10751 10750 10748 10747 10746 10742 10741 10741 10738 10736 10735 10732 10726 10719 10712 10703 10695 10686 10677 10668 10662 10654 10643 10634 10625 10616
10794 10792 10791 10788 10786 10783 10779 10780 10777 10772 10772 10772 10768 10767 10764 10760 10756 10752 10748 10746 10743 10741 10740 10737 10733 10736 10736 10732 10730 10729 10727 10722 10718 10719 10713 10707 10701 10694 10686 10677 10668 10660 10653 10647 10638 10629 10621 10612 10603
10789 10787 10785 10782 10779 10778 10776 10767 10770 10766 10763 10761 10758 10758 10755 10752 10749 10744 10738 10735 10732 10732 10730 10726 10725 10728 10729 10727 10725 10722 10716 10709 10703 10700 10695 10690 10683 10677 10669 10660 10653 10645 10638 10631 10624 10616 10608 10599 10590